Year,Month,Day,Hour,Minute,Value (Times are PST for temperature in C)
2008,02,22,00,00,0.30
2008,02,22,00,01,0.30
2008,02,22,00,02,0.20
2008,02,22,00,03,0.20
2008,02,22,00,04,0.20
2008,02,22,00,05,0.20
2008,02,22,00,06,0.20
2008,02,22,00,07,0.20
2008,02,22,00,08,0.20
2008,02,22,00,09,0.20
2008,02,22,00,10,0.20
2008,02,22,00,11,0.20
2008,02,22,00,12,0.20
2008,02,22,01,02,0.20
2008,02,22,01,03,0.20
2008,02,22,01,04,0.20
2008,02,22,01,05,0.20
2008,02,22,01,06,0.20
2008,02,22,01,07,0.20
2008,02,22,01,08,0.20
2008,02,22,01,09,0.20
2008,02,22,01,10,0.10
2008,02,22,01,11,0.10
2008,02,22,01,12,0.10
2008,02,22,01,13,0.10
2008,02,22,01,14,0.10
2008,02,22,01,15,0.10
2008,02,22,01,16,0.10
2008,02,22,01,17,0.10
2008,02,22,01,18,0.10
2008,02,22,01,19,0.10
2008,02,22,01,20,0.10
2008,02,22,01,21,0.10
2008,02,22,01,22,0.20
2008,02,22,01,23,0.20
2008,02,22,01,24,0.20
2008,02,22,01,25,0.20
2008,02,22,01,26,0.20
2008,02,22,01,27,0.20
2008,02,22,01,28,0.20
2008,02,22,01,29,0.20
2008,02,22,01,30,0.20
2008,02,22,01,31,0.20
2008,02,22,01,32,0.20
2008,02,22,01,33,0.20
2008,02,22,01,34,0.20
2008,02,22,01,35,0.20
2008,02,22,01,36,0.20
2008,02,22,01,37,0.20
2008,02,22,01,38,0.30
2008,02,22,01,39,0.30
2008,02,22,01,40,0.30
2008,02,22,01,41,0.30
2008,02,22,01,42,0.30
2008,02,22,01,43,0.30
2008,02,22,01,44,0.30
2008,02,22,01,45,0.30
2008,02,22,01,46,0.30
2008,02,22,01,47,0.30
2008,02,22,01,48,0.30
2008,02,22,01,49,0.40
2008,02,22,01,50,0.40
2008,02,22,01,51,0.40
2008,02,22,01,52,0.40
2008,02,22,01,53,0.50
2008,02,22,01,54,0.50
2008,02,22,01,55,0.50
2008,02,22,01,56,0.60
2008,02,22,01,57,0.60
2008,02,22,01,58,0.60
2008,02,22,01,59,0.60
2008,02,22,02,00,0.70
2008,02,22,02,01,0.70
2008,02,22,02,02,0.70
2008,02,22,02,03,0.70
2008,02,22,02,04,0.70
2008,02,22,02,05,0.70
2008,02,22,02,06,0.70
2008,02,22,02,07,0.70
2008,02,22,02,08,0.80
2008,02,22,02,09,0.80
2008,02,22,02,10,0.80
2008,02,22,02,11,0.80
2008,02,22,02,12,0.80
2008,02,22,02,13,0.80
2008,02,22,02,14,0.80
2008,02,22,02,15,0.80
2008,02,22,02,16,0.80
2008,02,22,02,17,0.80
2008,02,22,02,18,0.80
2008,02,22,02,19,0.80
2008,02,22,02,20,0.80
2008,02,22,02,21,0.80
2008,02,22,02,22,0.80
2008,02,22,02,23,0.90
2008,02,22,02,24,0.90
2008,02,22,02,25,0.90
2008,02,22,02,26,0.90
2008,02,22,02,27,0.90
2008,02,22,02,28,0.90
2008,02,22,02,29,0.90
2008,02,22,02,30,0.90
2008,02,22,02,31,0.90
2008,02,22,02,32,0.90
2008,02,22,02,33,0.90
2008,02,22,02,34,0.90
2008,02,22,02,35,0.90
2008,02,22,02,36,0.90
2008,02,22,02,37,0.90
2008,02,22,02,38,0.90
2008,02,22,02,39,1.00
2008,02,22,02,40,1.00
2008,02,22,02,41,1.00
2008,02,22,02,42,1.00
2008,02,22,02,43,1.00
2008,02,22,02,44,1.00
2008,02,22,02,45,1.00
2008,02,22,02,46,1.00
2008,02,22,02,47,1.10
2008,02,22,02,48,1.10
2008,02,22,02,49,1.10
2008,02,22,02,50,1.10
2008,02,22,02,51,1.10
2008,02,22,02,52,1.10
2008,02,22,02,53,1.10
2008,02,22,02,54,1.10
2008,02,22,02,55,1.10
2008,02,22,02,56,1.20
2008,02,22,02,57,1.20
2008,02,22,02,58,1.20
2008,02,22,02,59,1.20
2008,02,22,03,00,1.20
2008,02,22,03,01,1.20
2008,02,22,03,02,1.20
2008,02,22,03,03,1.20
2008,02,22,03,04,1.20
2008,02,22,03,05,1.20
2008,02,22,03,06,1.20
2008,02,22,03,07,1.20
2008,02,22,03,08,1.30
2008,02,22,03,09,1.30
2008,02,22,03,10,1.30
2008,02,22,03,11,1.30
2008,02,22,03,12,1.30
2008,02,22,03,13,1.30
2008,02,22,03,14,1.30
2008,02,22,03,15,1.30
2008,02,22,03,16,1.30
2008,02,22,03,17,1.30
2008,02,22,03,18,1.30
2008,02,22,03,19,1.30
2008,02,22,03,20,1.30
2008,02,22,03,21,1.30
2008,02,22,03,22,1.30
2008,02,22,03,23,1.30
2008,02,22,03,24,1.30
2008,02,22,03,25,1.30
2008,02,22,03,26,1.30
2008,02,22,03,27,1.30
2008,02,22,03,28,1.30
2008,02,22,03,29,1.30
2008,02,22,03,30,1.40
2008,02,22,03,31,1.40
2008,02,22,03,32,1.40
2008,02,22,03,33,1.40
2008,02,22,03,34,1.40
2008,02,22,03,35,1.40
2008,02,22,03,36,1.40
2008,02,22,03,37,1.50
2008,02,22,03,38,1.50
2008,02,22,03,39,1.50
2008,02,22,03,40,1.50
2008,02,22,03,41,1.50
2008,02,22,03,42,1.50
2008,02,22,03,43,1.50
2008,02,22,03,44,1.60
2008,02,22,03,45,1.60
2008,02,22,03,46,1.60
2008,02,22,03,47,1.60
2008,02,22,03,48,1.60
2008,02,22,03,49,1.60
2008,02,22,03,50,1.60
2008,02,22,03,51,1.60
2008,02,22,03,52,1.60
2008,02,22,03,53,1.60
2008,02,22,03,54,1.60
2008,02,22,03,55,1.60
2008,02,22,03,56,1.60
2008,02,22,03,57,1.60
2008,02,22,03,58,1.60
2008,02,22,03,59,1.60
2008,02,22,04,00,1.70
2008,02,22,04,01,1.70
2008,02,22,04,02,1.70
2008,02,22,04,03,1.70
2008,02,22,04,04,1.70
2008,02,22,04,05,1.70
2008,02,22,04,06,1.70
2008,02,22,04,07,1.70
2008,02,22,04,08,1.80
2008,02,22,04,09,1.80
2008,02,22,04,10,1.80
2008,02,22,04,11,1.80
2008,02,22,04,12,1.80
2008,02,22,04,13,1.80
2008,02,22,04,14,1.80
2008,02,22,04,15,1.80
2008,02,22,04,16,1.80
2008,02,22,04,17,1.80
2008,02,22,04,18,1.80
2008,02,22,04,19,1.90
2008,02,22,04,20,1.90
2008,02,22,04,21,1.90
2008,02,22,04,22,1.90
2008,02,22,04,23,1.90
2008,02,22,04,24,1.90
2008,02,22,04,25,1.90
2008,02,22,04,26,1.90
2008,02,22,04,27,1.90
2008,02,22,04,28,1.90
2008,02,22,04,29,1.90
2008,02,22,04,30,1.90
2008,02,22,04,31,1.90
2008,02,22,04,32,1.90
2008,02,22,04,33,1.90
2008,02,22,04,34,2.00
2008,02,22,04,35,2.00
2008,02,22,04,36,2.00
2008,02,22,04,37,2.00
2008,02,22,04,38,2.00
2008,02,22,04,39,2.00
2008,02,22,04,40,2.00
2008,02,22,04,41,2.10
2008,02,22,04,42,2.10
2008,02,22,04,43,2.10
2008,02,22,04,44,2.10
2008,02,22,04,45,2.10
2008,02,22,04,46,2.10
2008,02,22,04,47,2.20
2008,02,22,04,48,2.20
2008,02,22,04,49,2.20
2008,02,22,04,50,2.20
2008,02,22,04,51,2.20
2008,02,22,04,52,2.20
2008,02,22,04,53,2.20
2008,02,22,04,54,2.20
2008,02,22,04,55,2.20
2008,02,22,04,56,2.30
2008,02,22,04,57,2.30
2008,02,22,04,58,2.30
2008,02,22,04,59,2.30
2008,02,22,05,00,2.30
2008,02,22,05,01,2.30
2008,02,22,05,02,2.30
2008,02,22,05,03,2.30
2008,02,22,05,04,2.30
2008,02,22,05,05,2.30
2008,02,22,05,06,2.30
2008,02,22,05,07,2.40
2008,02,22,05,08,2.40
2008,02,22,05,09,2.40
2008,02,22,05,10,2.40
2008,02,22,05,11,2.40
2008,02,22,05,12,2.40
2008,02,22,05,13,2.40
2008,02,22,05,14,2.40
2008,02,22,05,15,2.40
2008,02,22,05,16,2.50
2008,02,22,05,17,2.50
2008,02,22,05,18,2.60
2008,02,22,05,19,2.60
2008,02,22,05,20,2.60
2008,02,22,05,21,2.60
2008,02,22,05,22,2.70
2008,02,22,05,23,2.70
2008,02,22,05,24,2.70
2008,02,22,05,25,2.70
2008,02,22,05,26,2.70
2008,02,22,05,27,2.70
2008,02,22,05,28,2.70
2008,02,22,05,29,2.70
2008,02,22,05,30,2.70
2008,02,22,05,31,2.70
2008,02,22,05,32,2.70
2008,02,22,05,33,2.70
2008,02,22,05,34,2.70
2008,02,22,05,35,2.80
2008,02,22,05,36,2.80
2008,02,22,05,37,2.80
2008,02,22,05,38,2.80
2008,02,22,05,39,2.80
2008,02,22,05,40,2.90
2008,02,22,05,41,2.90
2008,02,22,05,42,2.90
2008,02,22,05,43,3.00
2008,02,22,05,44,3.00
2008,02,22,05,45,3.10
2008,02,22,05,46,3.10
2008,02,22,05,47,3.10
2008,02,22,05,48,3.20
2008,02,22,05,49,3.20
2008,02,22,05,50,3.20
2008,02,22,05,51,3.20
2008,02,22,05,52,3.20
2008,02,22,05,53,3.20
2008,02,22,05,54,3.20
2008,02,22,05,55,3.20
2008,02,22,05,56,3.20
2008,02,22,05,57,3.20
2008,02,22,05,58,3.20
2008,02,22,05,59,3.20
2008,02,22,06,00,3.20
2008,02,22,06,01,3.20
2008,02,22,06,02,3.20
2008,02,22,06,03,3.20
2008,02,22,06,04,3.20
2008,02,22,06,05,3.10
2008,02,22,06,06,3.20
2008,02,22,06,07,3.10
2008,02,22,06,08,3.10
2008,02,22,06,09,3.10
2008,02,22,06,10,3.10
2008,02,22,06,11,3.10
2008,02,22,06,12,3.10
2008,02,22,06,13,3.10
2008,02,22,06,14,3.10
2008,02,22,06,15,3.10
2008,02,22,06,16,3.10
2008,02,22,06,17,3.10
2008,02,22,06,18,3.10
2008,02,22,06,19,3.10
2008,02,22,06,20,3.10
2008,02,22,06,21,3.10
2008,02,22,06,22,3.10
2008,02,22,06,23,3.10
2008,02,22,06,24,3.10
2008,02,22,06,25,3.10
2008,02,22,06,26,3.10
2008,02,22,06,27,3.10
2008,02,22,06,28,3.00
2008,02,22,06,29,3.00
2008,02,22,06,30,3.00
2008,02,22,06,31,3.00
2008,02,22,06,32,3.00
2008,02,22,06,33,3.00
2008,02,22,06,34,3.00
2008,02,22,06,35,2.90
2008,02,22,06,36,2.90
2008,02,22,06,37,2.90
2008,02,22,06,38,2.90
2008,02,22,06,39,2.90
2008,02,22,06,40,2.90
2008,02,22,06,41,2.90
2008,02,22,06,42,2.90
2008,02,22,06,43,2.90
2008,02,22,06,44,2.90
2008,02,22,06,45,2.80
2008,02,22,06,46,2.90
2008,02,22,06,47,2.90
2008,02,22,06,48,2.90
2008,02,22,06,49,2.90
2008,02,22,06,50,2.90
2008,02,22,06,51,2.80
2008,02,22,06,52,2.80
2008,02,22,06,53,2.80
2008,02,22,06,54,2.80
2008,02,22,06,55,2.80
2008,02,22,06,56,2.80
2008,02,22,06,57,2.80
2008,02,22,06,58,2.80
2008,02,22,06,59,2.80
2008,02,22,07,00,2.80
2008,02,22,07,01,2.80
2008,02,22,07,02,2.80
2008,02,22,07,03,2.80
2008,02,22,07,04,2.80
2008,02,22,07,05,2.80
2008,02,22,07,06,2.80
2008,02,22,07,07,2.80
2008,02,22,07,08,2.80
2008,02,22,07,09,2.80
2008,02,22,07,10,2.80
2008,02,22,07,11,2.80
2008,02,22,07,12,2.80
2008,02,22,07,13,2.80
2008,02,22,07,14,2.80
2008,02,22,07,15,2.80
2008,02,22,07,16,2.80
2008,02,22,07,17,2.80
2008,02,22,07,18,2.80
2008,02,22,07,19,2.90
2008,02,22,07,20,2.90
2008,02,22,07,21,2.90
2008,02,22,07,22,3.00
2008,02,22,07,23,3.00
2008,02,22,07,24,3.10
2008,02,22,07,25,3.20
2008,02,22,07,26,3.20
2008,02,22,07,27,3.30
2008,02,22,07,28,3.30
2008,02,22,07,29,3.30
2008,02,22,07,30,3.40
2008,02,22,07,31,3.40
2008,02,22,07,32,3.50
2008,02,22,07,33,3.50
2008,02,22,07,34,3.60
2008,02,22,07,35,3.60
2008,02,22,07,36,3.70
2008,02,22,07,37,3.70
2008,02,22,07,38,3.70
2008,02,22,07,39,3.80
2008,02,22,07,40,3.80
2008,02,22,07,41,3.80
2008,02,22,07,42,3.90
2008,02,22,07,43,3.90
2008,02,22,07,44,3.90
2008,02,22,07,45,3.90
2008,02,22,07,46,3.90
2008,02,22,07,47,3.90
2008,02,22,07,48,3.90
2008,02,22,07,49,3.90
2008,02,22,07,50,3.90
2008,02,22,07,51,3.90
2008,02,22,07,52,3.90
2008,02,22,07,53,3.90
2008,02,22,07,54,3.90
2008,02,22,07,55,3.80
2008,02,22,07,56,3.80
2008,02,22,07,57,3.80
2008,02,22,07,58,3.80
2008,02,22,07,59,3.80
2008,02,22,08,00,3.80
2008,02,22,08,01,3.80
2008,02,22,08,02,3.80
2008,02,22,08,03,3.80
2008,02,22,08,04,3.80
2008,02,22,08,05,3.80
2008,02,22,08,06,3.80
2008,02,22,08,07,3.80
2008,02,22,08,08,3.80
2008,02,22,08,09,3.80
2008,02,22,08,10,3.80
2008,02,22,08,11,3.80
2008,02,22,08,12,3.80
2008,02,22,08,13,3.80
2008,02,22,08,14,3.80
2008,02,22,08,15,3.80
2008,02,22,08,16,3.80
2008,02,22,08,17,3.80
2008,02,22,08,18,3.80
2008,02,22,08,19,3.90
2008,02,22,08,20,3.90
2008,02,22,08,21,3.90
2008,02,22,08,22,4.00
2008,02,22,08,23,4.00
2008,02,22,08,24,4.10
2008,02,22,08,25,4.10
2008,02,22,08,26,4.20
2008,02,22,08,27,4.20
2008,02,22,08,28,4.30
2008,02,22,08,29,4.30
2008,02,22,08,30,4.40
2008,02,22,08,31,4.50
2008,02,22,08,32,4.50
2008,02,22,08,33,4.60
2008,02,22,08,34,4.70
2008,02,22,08,35,4.70
2008,02,22,08,36,4.80
2008,02,22,08,37,4.80
2008,02,22,08,38,4.90
2008,02,22,08,39,5.00
2008,02,22,08,40,5.10
2008,02,22,08,41,5.20
2008,02,22,08,42,5.20
2008,02,22,08,43,5.30
2008,02,22,08,44,5.40
2008,02,22,08,45,5.40
2008,02,22,08,46,5.50
2008,02,22,08,47,5.60
2008,02,22,08,48,5.60
2008,02,22,08,49,5.70
2008,02,22,08,50,5.70
2008,02,22,08,51,5.80
2008,02,22,08,52,5.80
2008,02,22,08,53,5.80
2008,02,22,08,54,5.80
2008,02,22,08,55,5.80
2008,02,22,08,56,5.90
2008,02,22,08,57,5.90
2008,02,22,08,58,5.90
2008,02,22,08,59,6.00
2008,02,22,09,00,6.00
2008,02,22,09,01,6.10
2008,02,22,09,02,6.10
2008,02,22,09,03,6.20
2008,02,22,09,04,6.20
2008,02,22,09,05,6.30
2008,02,22,09,06,6.30
2008,02,22,09,07,6.40
2008,02,22,09,08,6.40
2008,02,22,09,09,6.50
2008,02,22,09,10,6.60
2008,02,22,09,11,6.60
2008,02,22,09,12,6.70
2008,02,22,09,13,6.70
2008,02,22,09,14,6.80
2008,02,22,09,15,6.80
2008,02,22,09,16,6.90
2008,02,22,09,17,7.00
2008,02,22,09,18,7.00
2008,02,22,09,19,7.10
2008,02,22,09,20,7.20
2008,02,22,09,21,7.20
2008,02,22,09,22,7.30
2008,02,22,09,23,7.40
2008,02,22,09,24,7.40
2008,02,22,09,25,7.50
2008,02,22,09,26,7.60
2008,02,22,09,27,7.70
2008,02,22,09,28,7.80
2008,02,22,09,29,7.90
2008,02,22,09,30,7.90
2008,02,22,09,31,8.00
2008,02,22,09,32,8.10
2008,02,22,09,33,8.20
2008,02,22,09,34,8.30
2008,02,22,09,35,8.30
2008,02,22,09,36,8.40
2008,02,22,09,37,8.40
2008,02,22,09,38,8.50
2008,02,22,09,39,8.60
2008,02,22,09,40,8.60
2008,02,22,09,41,8.70
2008,02,22,09,42,8.70
2008,02,22,09,43,8.70
2008,02,22,09,44,8.80
2008,02,22,09,45,8.80
2008,02,22,09,46,8.80
2008,02,22,09,47,8.90
2008,02,22,09,48,8.90
2008,02,22,09,49,9.00
2008,02,22,09,50,9.00
2008,02,22,09,51,9.00
2008,02,22,09,52,8.90
2008,02,22,09,53,8.90
2008,02,22,09,54,8.90
2008,02,22,09,55,8.90
2008,02,22,09,56,8.90
2008,02,22,09,57,8.90
2008,02,22,09,58,9.00
2008,02,22,09,59,9.00
2008,02,22,10,00,9.10
2008,02,22,10,01,9.10
2008,02,22,10,02,9.10
2008,02,22,10,03,9.10
2008,02,22,10,04,9.10
2008,02,22,10,05,9.00
2008,02,22,10,06,9.00
2008,02,22,10,07,9.00
2008,02,22,10,08,9.00
2008,02,22,10,09,9.00
2008,02,22,10,10,8.90
2008,02,22,10,11,8.90
2008,02,22,10,12,9.00
2008,02,22,10,13,9.00
2008,02,22,10,14,9.00
2008,02,22,10,15,9.10
2008,02,22,10,16,9.10
2008,02,22,10,17,9.20
2008,02,22,10,18,9.20
2008,02,22,10,19,9.30
2008,02,22,10,20,9.30
2008,02,22,10,21,9.40
2008,02,22,10,22,9.40
2008,02,22,10,23,9.50
2008,02,22,10,24,9.60
2008,02,22,10,25,9.60
2008,02,22,10,26,9.60
2008,02,22,10,27,9.60
2008,02,22,10,28,9.60
2008,02,22,10,29,9.60
2008,02,22,10,30,9.60
2008,02,22,10,31,9.60
2008,02,22,10,32,9.60
2008,02,22,10,33,9.60
2008,02,22,10,34,9.70
2008,02,22,10,35,9.70
2008,02,22,10,36,9.70
2008,02,22,10,37,9.80
2008,02,22,10,38,9.80
2008,02,22,10,39,9.90
2008,02,22,10,40,9.90
2008,02,22,10,41,9.90
2008,02,22,10,42,9.80
2008,02,22,10,43,9.80
2008,02,22,10,44,9.80
2008,02,22,10,45,9.80
2008,02,22,10,46,9.90
2008,02,22,10,47,9.90
2008,02,22,10,48,9.90
2008,02,22,10,49,10.00
2008,02,22,10,50,10.10
2008,02,22,10,51,10.10
2008,02,22,10,52,10.10
2008,02,22,10,53,10.10
2008,02,22,10,54,10.10
2008,02,22,10,55,10.10
2008,02,22,10,56,10.00
2008,02,22,10,57,10.00
2008,02,22,10,58,9.90
2008,02,22,10,59,9.90
2008,02,22,11,00,9.80
2008,02,22,11,01,9.80
2008,02,22,11,02,9.80
2008,02,22,11,03,9.80
2008,02,22,11,04,9.80
2008,02,22,11,05,9.80
2008,02,22,11,06,9.90
2008,02,22,11,07,9.90
2008,02,22,11,08,10.00
2008,02,22,11,09,10.10
2008,02,22,11,10,10.10
2008,02,22,11,11,10.10
2008,02,22,11,12,10.10
2008,02,22,11,13,10.10
2008,02,22,11,14,10.20
2008,02,22,11,15,10.20
2008,02,22,11,16,10.20
2008,02,22,11,17,10.20
2008,02,22,11,18,10.10
2008,02,22,11,19,10.00
2008,02,22,11,20,9.90
2008,02,22,11,21,9.90
2008,02,22,11,22,9.90
2008,02,22,11,23,9.80
2008,02,22,11,24,9.80
2008,02,22,11,25,9.80
2008,02,22,11,26,9.80
2008,02,22,11,27,9.80
2008,02,22,11,28,9.80
2008,02,22,11,29,9.80
2008,02,22,11,30,9.90
2008,02,22,11,31,10.00
2008,02,22,11,32,10.00
2008,02,22,11,33,10.10
2008,02,22,11,34,10.20
2008,02,22,11,35,10.30
2008,02,22,11,36,10.40
2008,02,22,11,37,10.50
2008,02,22,11,38,10.60
2008,02,22,11,39,10.70
2008,02,22,11,40,10.80
2008,02,22,11,41,10.80
2008,02,22,11,42,10.80
2008,02,22,11,43,10.80
2008,02,22,11,44,10.70
2008,02,22,11,45,10.60
2008,02,22,11,46,10.60
2008,02,22,11,47,10.60
2008,02,22,11,48,10.60
2008,02,22,11,49,10.70
2008,02,22,11,50,10.80
2008,02,22,11,51,10.80
2008,02,22,11,52,10.80
2008,02,22,11,53,10.80
2008,02,22,11,54,10.70
2008,02,22,11,55,10.70
2008,02,22,11,56,10.80
2008,02,22,11,57,10.80
2008,02,22,11,58,10.80
2008,02,22,11,59,10.80
2008,02,22,12,00,10.80
2008,02,22,12,01,10.70
2008,02,22,12,02,10.70
2008,02,22,12,03,10.70
2008,02,22,12,04,10.80
2008,02,22,12,05,10.70
2008,02,22,12,06,10.70
2008,02,22,12,07,10.70
2008,02,22,12,08,10.70
2008,02,22,12,09,10.60
2008,02,22,12,10,10.70
2008,02,22,12,11,10.70
2008,02,22,12,12,10.70
2008,02,22,12,13,10.80
2008,02,22,12,14,10.80
2008,02,22,12,15,10.80
2008,02,22,12,16,10.90
2008,02,22,12,17,10.90
2008,02,22,12,18,10.90
2008,02,22,12,19,11.00
2008,02,22,12,20,11.00
2008,02,22,12,21,11.00
2008,02,22,12,22,11.00
2008,02,22,12,23,10.90
2008,02,22,12,24,10.90
2008,02,22,12,25,11.00
2008,02,22,12,26,11.10
2008,02,22,12,27,11.10
2008,02,22,12,28,11.20
2008,02,22,12,29,11.20
2008,02,22,12,30,11.30
2008,02,22,12,31,11.30
2008,02,22,12,32,11.30
2008,02,22,12,33,11.40
2008,02,22,12,34,11.50
2008,02,22,12,35,11.60
2008,02,22,12,36,11.70
2008,02,22,12,37,11.70
2008,02,22,12,38,11.70
2008,02,22,12,39,11.80
2008,02,22,12,40,11.80
2008,02,22,12,41,11.90
2008,02,22,12,42,11.90
2008,02,22,12,43,11.90
2008,02,22,12,44,11.90
2008,02,22,12,45,11.90
2008,02,22,12,46,11.80
2008,02,22,12,47,11.80
2008,02,22,12,48,11.70
2008,02,22,12,49,11.60
2008,02,22,12,50,11.50
2008,02,22,12,51,11.50
2008,02,22,12,52,11.50
2008,02,22,12,53,11.50
2008,02,22,12,54,11.60
2008,02,22,12,55,11.60
2008,02,22,12,56,11.50
2008,02,22,12,57,11.50
2008,02,22,12,58,11.50
2008,02,22,12,59,11.40
2008,02,22,13,00,11.50
2008,02,22,13,01,11.60
2008,02,22,13,02,11.70
2008,02,22,13,03,11.80
2008,02,22,13,04,11.80
2008,02,22,13,05,11.80
2008,02,22,13,06,11.80
2008,02,22,13,07,11.90
2008,02,22,13,08,12.00
2008,02,22,13,09,12.00
2008,02,22,13,10,12.10
2008,02,22,13,11,12.10
2008,02,22,13,12,12.10
2008,02,22,13,13,12.10
2008,02,22,13,14,12.10
2008,02,22,13,15,12.00
2008,02,22,13,16,12.00
2008,02,22,13,17,12.00
2008,02,22,13,18,12.10
2008,02,22,13,19,12.10
2008,02,22,13,20,12.10
2008,02,22,13,21,12.10
2008,02,22,13,22,12.20
2008,02,22,13,23,12.20
2008,02,22,13,24,12.20
2008,02,22,13,25,12.30
2008,02,22,13,26,12.30
2008,02,22,13,27,12.20
2008,02,22,13,28,12.20
2008,02,22,13,29,12.10
2008,02,22,13,30,12.10
2008,02,22,13,31,12.20
2008,02,22,13,32,12.20
2008,02,22,13,33,12.10
2008,02,22,13,34,12.20
2008,02,22,13,35,12.20
2008,02,22,13,36,12.20
2008,02,22,13,37,12.20
2008,02,22,13,38,12.20
2008,02,22,13,39,12.20
2008,02,22,13,40,12.30
2008,02,22,13,41,12.40
2008,02,22,13,42,12.50
2008,02,22,13,43,12.50
2008,02,22,13,44,12.50
2008,02,22,13,45,12.60
2008,02,22,13,46,12.70
2008,02,22,13,47,12.80
2008,02,22,13,48,12.90
2008,02,22,13,49,13.10
2008,02,22,13,50,13.10
2008,02,22,13,51,13.10
2008,02,22,13,52,13.10
2008,02,22,13,53,13.00
2008,02,22,13,54,13.00
2008,02,22,13,55,12.90
2008,02,22,13,56,12.80
2008,02,22,13,57,12.80
2008,02,22,13,58,12.90
2008,02,22,13,59,13.00
2008,02,22,14,00,13.00
2008,02,22,14,01,13.10
2008,02,22,14,02,13.10
2008,02,22,14,03,13.10
2008,02,22,14,04,13.10
2008,02,22,14,05,13.00
2008,02,22,14,06,13.00
2008,02,22,14,07,13.10
2008,02,22,14,08,13.10
2008,02,22,14,09,13.10
2008,02,22,14,10,13.10
2008,02,22,14,11,13.10
2008,02,22,14,12,13.10
2008,02,22,14,13,13.10
2008,02,22,14,14,13.10
2008,02,22,14,15,13.20
2008,02,22,14,16,13.20
2008,02,22,14,17,13.20
2008,02,22,14,18,13.30
2008,02,22,14,19,13.40
2008,02,22,14,20,13.50
2008,02,22,14,21,13.60
2008,02,22,14,22,13.80
2008,02,22,14,23,13.80
2008,02,22,14,24,13.80
2008,02,22,14,25,13.80
2008,02,22,14,26,13.90
2008,02,22,14,27,13.90
2008,02,22,14,28,14.00
2008,02,22,14,29,13.90
2008,02,22,14,30,14.00
2008,02,22,14,31,14.00
2008,02,22,14,32,14.00
2008,02,22,14,33,13.90
2008,02,22,14,34,13.90
2008,02,22,14,35,13.90
2008,02,22,14,36,13.90
2008,02,22,14,37,13.80
2008,02,22,14,38,13.80
2008,02,22,14,39,13.80
2008,02,22,14,40,13.70
2008,02,22,14,41,13.60
2008,02,22,14,42,13.50
2008,02,22,14,43,13.30
2008,02,22,14,44,13.20
2008,02,22,14,45,13.10
2008,02,22,14,46,13.10
2008,02,22,14,47,13.10
2008,02,22,14,48,13.00
2008,02,22,14,49,13.00
2008,02,22,14,50,13.10
2008,02,22,14,51,13.10
2008,02,22,14,52,13.00
2008,02,22,14,53,12.90
2008,02,22,14,54,12.80
2008,02,22,14,55,12.70
2008,02,22,14,56,12.70
2008,02,22,14,57,12.60
2008,02,22,14,58,12.60
2008,02,22,14,59,12.50
2008,02,22,15,00,12.50
2008,02,22,15,01,12.50
2008,02,22,15,02,12.50
2008,02,22,15,03,12.50
2008,02,22,15,04,12.50
2008,02,22,15,05,12.50
2008,02,22,15,06,12.40
2008,02,22,15,07,12.50
2008,02,22,15,08,12.50
2008,02,22,15,09,12.40
2008,02,22,15,10,12.40
2008,02,22,15,11,12.30
2008,02,22,15,12,12.30
2008,02,22,15,13,12.30
2008,02,22,15,14,12.20
2008,02,22,15,15,12.20
2008,02,22,15,16,12.20
2008,02,22,15,17,12.20
2008,02,22,15,18,12.20
2008,02,22,15,19,12.10
2008,02,22,15,20,12.10
2008,02,22,15,21,12.10
2008,02,22,15,22,12.10
2008,02,22,15,23,12.10
2008,02,22,15,24,12.10
2008,02,22,15,25,12.10
2008,02,22,15,26,12.10
2008,02,22,15,27,12.10
2008,02,22,15,28,12.10
2008,02,22,15,29,12.10
2008,02,22,15,30,12.10
2008,02,22,15,31,12.10
2008,02,22,15,32,12.10
2008,02,22,15,33,12.10
2008,02,22,15,34,12.10
2008,02,22,15,35,12.10
2008,02,22,15,36,12.10
2008,02,22,15,37,12.10
2008,02,22,15,38,12.00
2008,02,22,15,39,12.00
2008,02,22,15,40,12.10
2008,02,22,15,41,12.10
2008,02,22,15,42,12.10
2008,02,22,15,43,12.10
2008,02,22,15,44,12.10
2008,02,22,15,45,12.10
2008,02,22,15,46,12.10
2008,02,22,15,47,12.10
2008,02,22,15,48,12.00
2008,02,22,15,49,12.00
2008,02,22,15,50,11.90
2008,02,22,15,51,11.90
2008,02,22,15,52,11.80
2008,02,22,15,53,11.70
2008,02,22,15,54,11.70
2008,02,22,15,55,11.60
2008,02,22,15,56,11.60
2008,02,22,15,57,11.60
2008,02,22,15,58,11.60
2008,02,22,15,59,11.60
2008,02,22,16,00,11.50
2008,02,22,16,01,11.50
2008,02,22,16,02,11.50
2008,02,22,16,03,11.50
2008,02,22,16,04,11.40
2008,02,22,16,05,11.40
2008,02,22,16,06,11.40
2008,02,22,16,07,11.40
2008,02,22,16,08,11.40
2008,02,22,16,09,11.40
2008,02,22,16,10,11.40
2008,02,22,16,11,11.40
2008,02,22,16,12,11.40
2008,02,22,16,13,11.40
2008,02,22,16,14,11.40
2008,02,22,16,15,11.30
2008,02,22,16,16,11.40
2008,02,22,16,17,11.30
2008,02,22,16,18,11.30
2008,02,22,16,19,11.40
2008,02,22,16,20,11.40
2008,02,22,16,21,11.40
2008,02,22,16,22,11.40
2008,02,22,16,23,11.50
2008,02,22,16,24,11.50
2008,02,22,16,25,11.50
2008,02,22,16,26,11.50
2008,02,22,16,27,11.50
2008,02,22,16,28,11.50
2008,02,22,16,29,11.50
2008,02,22,16,30,11.50
2008,02,22,16,31,11.50
2008,02,22,16,32,11.50
2008,02,22,16,33,11.50
2008,02,22,16,34,11.50
2008,02,22,16,35,11.40
2008,02,22,16,36,11.40
2008,02,22,16,37,11.40
2008,02,22,16,38,11.40
2008,02,22,16,39,11.40
2008,02,22,16,40,11.40
2008,02,22,16,41,11.30
2008,02,22,16,42,11.30
2008,02,22,16,43,11.30
2008,02,22,16,44,11.30
2008,02,22,16,45,11.30
2008,02,22,16,46,11.20
2008,02,22,16,47,11.20
2008,02,22,16,48,11.20
2008,02,22,16,49,11.20
2008,02,22,16,50,11.20
2008,02,22,16,51,11.10
2008,02,22,16,52,11.10
2008,02,22,16,53,11.10
2008,02,22,16,54,11.10
2008,02,22,16,55,11.10
2008,02,22,16,56,11.10
2008,02,22,16,57,11.00
2008,02,22,16,58,11.00
2008,02,22,16,59,11.00
2008,02,22,17,00,10.90
2008,02,22,17,01,10.90
2008,02,22,17,02,10.90
2008,02,22,17,03,10.80
2008,02,22,17,04,10.80
2008,02,22,17,05,10.80
2008,02,22,17,06,10.70
2008,02,22,17,07,10.70
2008,02,22,17,08,10.60
2008,02,22,17,09,10.50
2008,02,22,17,10,10.40
2008,02,22,17,11,10.40
2008,02,22,17,12,10.30
2008,02,22,17,13,10.30
2008,02,22,17,14,10.20
2008,02,22,17,15,10.20
2008,02,22,17,16,10.10
2008,02,22,17,17,10.10
2008,02,22,17,18,10.10
2008,02,22,17,19,10.10
2008,02,22,17,20,10.10
2008,02,22,17,21,10.00
2008,02,22,17,22,10.00
2008,02,22,17,23,10.00
2008,02,22,17,24,9.90
2008,02,22,17,25,9.90
2008,02,22,17,26,9.90
2008,02,22,17,27,9.90
2008,02,22,17,28,9.80
2008,02,22,17,29,9.80
2008,02,22,17,30,9.80
2008,02,22,17,31,9.80
2008,02,22,17,32,9.70
2008,02,22,17,33,9.70
2008,02,22,17,34,9.70
2008,02,22,17,35,9.70
2008,02,22,17,36,9.60
2008,02,22,17,37,9.60
2008,02,22,17,38,9.60
2008,02,22,17,39,9.50
2008,02,22,17,40,9.50
2008,02,22,17,41,9.40
2008,02,22,17,42,9.40
2008,02,22,17,43,9.30
2008,02,22,17,44,9.30
2008,02,22,17,45,9.30
2008,02,22,17,46,9.20
2008,02,22,17,47,9.20
2008,02,22,17,48,9.20
2008,02,22,17,49,9.10
2008,02,22,17,50,9.00
2008,02,22,17,51,9.00
2008,02,22,17,52,8.90
2008,02,22,17,53,8.90
2008,02,22,17,54,8.80
2008,02,22,17,55,8.80
2008,02,22,17,56,8.70
2008,02,22,17,57,8.70
2008,02,22,17,58,8.70
2008,02,22,17,59,8.60
2008,02,22,18,00,8.60
2008,02,22,18,01,8.50
2008,02,22,18,02,8.50
2008,02,22,18,03,8.40
2008,02,22,18,04,8.40
2008,02,22,18,05,8.40
2008,02,22,18,06,8.40
2008,02,22,18,07,8.30
2008,02,22,18,08,8.30
2008,02,22,18,09,8.30
2008,02,22,18,10,8.30
2008,02,22,18,11,8.30
2008,02,22,18,12,8.20
2008,02,22,18,13,8.20
2008,02,22,18,14,8.20
2008,02,22,18,15,8.10
2008,02,22,18,16,8.10
2008,02,22,18,17,8.10
2008,02,22,18,18,8.00
2008,02,22,18,19,8.00
2008,02,22,18,20,8.00
2008,02,22,18,21,7.90
2008,02,22,18,22,7.90
2008,02,22,18,23,7.90
2008,02,22,18,24,7.90
2008,02,22,18,25,7.80
2008,02,22,18,26,7.80
2008,02,22,18,27,7.80
2008,02,22,18,28,7.80
2008,02,22,18,29,7.80
2008,02,22,18,30,7.80
2008,02,22,18,31,7.80
2008,02,22,18,32,7.80
2008,02,22,18,33,7.70
2008,02,22,18,34,7.70
2008,02,22,18,35,7.70
2008,02,22,18,36,7.70
2008,02,22,18,37,7.70
2008,02,22,18,38,7.70